Showing default

TRANSIT 4B, 202

Orbit data source: Space-Track

TRANSIT 4B, 202 is a payload satellite owned by USN BuWeps (US) in LEO that was launched on Wed, 15 Nov 1961 UTC via a THOR ABLESTAR launch vehicle from the Air Force Eastern Test Range (AFETR). Payloads include a variety of satellites, spacecraft, and rockets equipped with specific instruments for various scientific and technological missions. These include communications satellites like Starlink; space stations such as the ISS; scientific satellites like the Hubble; Earth observation satellites from companies like Planet Labs, Umbra, and HawkEye 360; GPS; miniature CubeSats for education and research; and military/defense satellites.

Loading next visibility...
TRANSIT 4B details
Identifier
202, 1961-031A
Orbit
LEO
Last TLE update14 hours ago
Origin
Flag of USUSN BuWeps (US)
ManufacturerAPL
MissionDefense Navigation
Bus & MotorTRANSIT 4, Unknown motor
Mass89 kg wet, 89 kg dry
Launch date (UTC)
1961-11-15 (63 years ago)
Launch vehicle
THOR ABLESTAR
Launch site
Air Force Eastern Test Range (AFETR)
Object type
Payload
Rocket body
Debris
Shape & HBRCyl, 1.09 m
Radar Cross Section1.143 m², Large (>1 m²)

Expand to show TLE details & history

TLE from 14 hours ago
0 TRANSIT 4B
1 00202U 61031A   25013.87194958  .00000098  00000-0  89185-4 0  9999
2 00202  32.4384  83.3617 0101036 230.2752 128.8928 13.63721537150068
Epoch: 2025-01-13T20:55Z
Definitive object data (Epoch: 2025-01-13T20:55:36.443Z)
Latitude-0.00001°
Longitude15.87306°
Altitude1,068.325 km
Speed7.296 km/s
True Right ascension05h 33m 26s
True Declination0° 00' 00"
Sunlit
Object was in full shadow at TLE epoch
Visualization TLE readout
Latitude-30.65936°
Longitude-55.09215°
Altitude985.22 km
Speed7.382 km/s
Apparent Right ascension00h 08m 07s
Apparent Declination-35° 21' 52"
Sunlit
Object is in daylight
Visualization observer readout
Local Sidereal Time11:14:16
Azimuth288.896° WNW
Elevation-78.425°
Doppler factor1
Orbital elements
Apogee altitude1,100.391 km
Perigee altitude950.783 km
Semi-major axis7,403.724 km
Eccentricity0.0101036
Inclination32.4384°
RAAN83.3617°
Arg. of periapsis230.2752°
True anomaly129.7868°
Mean anomaly128.8928°
Eccentric anomaly129.34051°
Mean motion3.40697 °/min
BSTAR0.000089185
Orbital period105.67 mins
Loading maneuver chart data...
Loading historical data...
Loading historical data...
Loading historical data...
Loading historical data...
Loading historical data...
Loading historical data...
Loading historical data...
Other satellites on launch #31 in the year 1961 (1961-11-15 UTC)

TRANSIT 4B Visibility forecast

Observer location: undefined°, undefined

Span
Click to sort rows by Start time (UTC) header in descending order
Start Az.
Max El. time (UTC)
Max El. Az.
Max El.
End time (UTC)
End Az.
12 mins2025-01-14 11:22:09.375Z254.283° W2025-01-14 11:28:09.375Z189.935° SSW35.078°2025-01-14 11:34:09.375Z119.062° SE
9 mins2025-01-14 13:16:09.375Z245.895° WSW2025-01-14 13:20:09.375Z199.961° SSW24.943°2025-01-14 13:25:09.375Z149.149° SSE
6 mins2025-01-15 06:30:09.375Z172.563° S2025-01-15 06:33:09.375Z144.804° SSE15.171°2025-01-15 06:36:09.375Z118.793° SE
11 mins2025-01-15 08:19:09.375Z219.615° SW2025-01-15 08:24:09.375Z163.524° S29.883°2025-01-15 08:30:09.375Z102.253° ESE
11 mins2025-01-15 10:11:09.375Z243.365° WSW2025-01-15 10:16:09.375Z176.444° S36.037°2025-01-15 10:22:09.375Z110.149° ESE
|